Regional Weather Roundup
Issued by NWS

Home | Current Version | Previous Version | Text Only | Print | Product List | Glossary On
Versions: 1 2 3 4 5 6 7 8 9 10 11 12 13 14 15 16 17 18 19 20 21 22 23 24 25 26 27 28 29 30 31 32 33 34 35 36 37 38 39 40 41 42 43 44 45 46 47 48 49 50
000
ASUS45 KBOI 261010
RWRID
WEATHER ROUNDUP FOR IDAHO
NATIONAL WEATHER SERVICE BOISE ID
300 AM MST WED NOV 26 2014

NOTE: "FAIR" INDICATES FEW OR NO CLOUDS BELOW 12000 FEET
WITH NO SIGNIFICANT WEATHER AND/OR OBSTRUCTIONS TO VISIBILITY

IDZ012-014-261100-
SOUTHWEST IDAHO


CITY           SKY/WX    TMP DP  RH WIND       PRES   REMARKS
BOISE          MOCLDY    47  38  71 N3        30.29S
CALDWELL       NOT AVBL
MOUNTAIN HOME  PTCLDY    40  40  99 W6        30.30R
$$

IDZ016-017-261100-
SOUTHCENTRAL IDAHO


CITY           SKY/WX    TMP DP  RH WIND       PRES   REMARKS
BURLEY         CLEAR     45  34  65 W13       30.28R
JEROME         CLEAR     42  33  70 SW12      30.30R
TWIN FALLS     CLEAR     44  33  65 S14       30.30S
$$

IDZ019>023-261100-
SOUTHEAST IDAHO


CITY           SKY/WX    TMP DP  RH WIND       PRES   REMARKS
IDAHO FALLS    CLOUDY    42  37  82 S25G32    30.17R
POCATELLO      PTCLDY    44  38  79 SW23G30   30.25R
REXBURG        CLOUDY    39  36  89 SW13      30.16R WCI  31
$$

IDZ006-010-011-018-031-032-261100-
CENTRAL IDAHO MOUNTAINS


CITY           SKY/WX    TMP DP  RH WIND       PRES   REMARKS
MCCALL         CLOUDY    36  35  96 N3        30.25R
HAILEY         CLEAR     32  32 100 NW3       30.25R
STANLEY          N/A     35  31  85 SE3       30.27S
SALMON         CLOUDY    32  30  93 CALM      30.14S VSB 1/4
CHALLIS        CLOUDY    45  31  58 SW10      30.17R
$$

IDZ002-004-006-007-026-261100-
NORTHERN IDAHO


CITY           SKY/WX    TMP DP  RH WIND       PRES   REMARKS
LEWISTON       CLOUDY    42  40  92 S3        30.18R
LOWELL           N/A     37  35  92 CALM      30.22R
COEUR D`ALENE  CLOUDY    34  30  86 NE5       30.15S WCI  30
MULLAN PASS    MIX PCPN  32  30  92 VRB5      30.06R VSB 1/2 WCI  27
$$


USA.gov is the U.S. government's official web portal to all federal, state and local government web resources and services.